IZ1UQG-2 Weather Reports


time (UTC)temp
F
wind
direction
speed
knots
gust
knots
rain 1hr
in
rain 24hr
in
rain mn
in
humidity
%
barometer
mb
20260506003116 53 318 1.7 3.5 0.00 0.63 0.00 91 1009.7
20260506002905 53 321 1.7 3.5 0.00 0.63 0.00 91 1009.7
20260506002804 53 320 1.7 3.5 0.00 0.63 0.00 92 1009.6
20260506002704 53 322 1.7 3.5 0.00 0.63 0.00 92 1009.7
20260506002604 53 325 1.7 3.5 0.00 0.63 0.00 92 1009.6
20260506002504 53 331 0.9 2.6 0.00 0.63 0.00 91 1009.7
20260506002403 53 335 0.9 2.6 0.00 0.63 0.00 91 1009.7
20260506002306 53 335 0.9 2.6 0.00 0.63 0.00 91 1009.7
20260506002204 53 335 0.9 2.6 0.00 0.63 0.00 91 1009.6
20260506002108 53 335 0.9 1.7 0.00 0.63 0.00 91 1009.6
20260506002004 53 335 0.9 1.7 0.00 0.63 0.00 91 1009.6
20260506001904 53 335 0.9 1.7 0.00 0.63 0.00 91 1009.6
20260506001815 53 335 0.9 1.7 0.00 0.63 0.00 91 1009.7
20260506001704 53 336 0.9 2.6 0.00 0.63 0.00 91 1009.7
20260506001603 53 336 0.9 2.6 0.00 0.63 0.00 92 1009.6
20260506001504 53 335 0.9 2.6 0.00 0.63 0.00 91 1009.7
20260506001303 53 335 1.7 2.6 0.00 0.63 0.00 92 1009.8
20260506001205 53 335 1.7 2.6 0.00 0.63 0.00 91 1009.8
20260506001004 53 335 1.7 2.6 0.00 0.63 0.00 91 1009.8
20260506000804 53 335 1.7 2.6 0.00 0.63 0.00 91 1009.7
20260506000703 53 335 0.9 2.6 0.00 0.63 0.00 91 1009.5
20260506000604 53 335 0.9 2.6 0.00 0.63 0.00 91 1009.8
20260506000509 53 335 0.9 2.6 0.00 0.63 0.00 91 1009.8
20260506000403 54 335 0.9 1.7 0.00 0.63 0.00 91 1009.8
20260506000303 53 335 0.9 1.7 0.00 0.63 0.00 91 1009.7
20260506000215 53 336 0.0 1.7 0.00 0.63 0.00 91 1009.7
20260506000004 54 335 0.0 1.7 0.00 0.63 0.00 91 1009.7
20260505235904 54 335 0.0 0.9 0.00 0.63 0.00 91 1009.8
20260505235804 54 335 0.0 0.9 0.00 0.63 0.00 91 1009.8
20260505235704 54 335 0.0 0.9 0.00 0.63 0.00 91 1009.9
20260505235605 54 335 0.0 0.9 0.00 0.63 0.00 91 1009.8
20260505235504 54 336 0.0 0.9 0.00 0.63 0.00 91 1009.9
20260505235404 54 335 0.0 0.9 0.00 0.63 0.00 91 1009.8
20260505235305 54 335 0.0 0.9 0.00 0.63 0.00 91 1009.7
20260505235205 54 335 0.0 1.7 0.00 0.63 0.00 91 1009.8
20260505235103 54 336 0.0 1.7 0.00 0.63 0.00 91 1009.9
20260505235004 54 338 0.0 1.7 0.00 0.63 0.00 91 1009.9
20260505234904 54 340 0.9 1.7 0.00 0.63 0.00 91 1009.9
20260505234803 54 341 0.9 1.7 0.00 0.63 0.00 91 1010.0
20260505234704 54 342 0.9 1.7 0.00 0.63 0.00 91 1010.0
20260505234608 54 341 0.9 1.7 0.00 0.63 0.00 91 1010.0
20260505234504 54 338 0.9 1.7 0.00 0.63 0.00 91 1010.0
20260505234404 54 336 0.9 1.7 0.00 0.63 0.00 91 1010.0
20260505234315 54 334 0.9 1.7 0.00 0.63 0.00 91 1010.1
20260505234204 54 332 0.9 1.7 0.00 0.63 0.00 91 1010.1
20260505234104 54 331 0.9 1.7 0.00 0.63 0.00 91 1010.1
20260505234004 54 329 0.9 1.7 0.00 0.63 0.00 91 1010.1
20260505233904 54 323 0.0 1.7 0.00 0.63 0.00 91 1010.0
20260505233803 54 317 0.0 1.7 0.00 0.63 0.00 91 1010.0
20260505233703 54 309 0.0 1.7 0.00 0.63 0.00 91 1010.1
20260505233603 54 309 0.0 1.7 0.00 0.63 0.00 91 1010.1
20260505233505 54 309 0.0 1.7 0.00 0.63 0.00 91 1010.2
20260505233404 54 309 0.0 1.7 0.00 0.63 0.00 91 1010.1
20260505233304 54 309 0.0 1.7 0.00 0.63 0.00 91 1010.2
20260505233204 53 309 0.0 0.9 0.00 0.63 0.00 91 1010.3
20260505233103 53 309 0.0 0.9 0.00 0.63 0.00 91 1010.3
20260505233004 53 310 0.0 1.7 0.00 0.63 0.00 91 1010.3
20260505232904 53 309 0.0 1.7 0.00 0.63 0.00 91 1010.2
20260505232804 54 310 0.0 1.7 0.00 0.63 0.00 91 1010.3
20260505232709 54 310 0.0 1.7 0.00 0.63 0.00 91 1010.3
20260505232604 54 309 0.9 2.6 0.00 0.63 0.00 91 1010.3
20260505232504 54 306 0.9 2.6 0.00 0.63 0.00 91 1010.2
20260505232416 54 304 0.9 2.6 0.00 0.63 0.00 91 1010.2
20260505232305 54 303 0.9 2.6 0.00 0.63 0.00 91 1010.2
20260505232205 54 303 0.9 2.6 0.00 0.63 0.00 91 1010.1
20260505232104 54 301 0.9 2.6 0.00 0.63 0.00 91 1010.2
20260505231805 54 299 0.9 2.6 0.00 0.63 0.00 91 1010.2
20260505231704 54 297 0.9 2.6 0.00 0.63 0.00 91 1010.2
20260505231504 54 298 0.0 1.7 0.00 0.63 0.00 91 1010.3
20260505231403 54 304 0.0 1.7 0.00 0.63 0.00 91 1010.4
20260505231305 54 310 0.0 1.7 0.00 0.63 0.00 91 1010.4
20260505231204 54 322 0.0 1.7 0.00 0.63 0.00 91 1010.4
20260505231004 54 345 0.9 2.6 0.00 0.63 0.00 91 1010.5
20260505230904 54 347 0.9 2.6 0.00 0.63 0.00 91 1010.5
20260505230815 54 349 0.9 3.5 0.00 0.63 0.00 91 1010.6
20260505230704 54 347 0.9 3.5 0.00 0.63 0.00 91 1010.5
20260505230604 53 344 1.7 3.5 0.00 0.63 0.00 91 1010.5
20260505230504 53 343 1.7 3.5 0.00 0.63 0.00 91 1010.5
20260505230404 53 342 1.7 3.5 0.00 0.63 0.00 91 1010.4
20260505230304 53 342 1.7 3.5 0.00 0.63 0.00 91 1010.4
20260505230204 53 340 1.7 3.5 0.00 0.63 0.00 91 1010.4
20260505230104 53 340 1.7 3.5 0.00 0.63 0.00 91 1010.4
20260505230004 53 338 1.7 3.5 0.00 0.63 0.00 91 1010.4
20260505225903 53 336 1.7 3.5 0.00 0.63 0.00 91 1010.4
20260505225604 54 330 1.7 3.5 0.00 0.63 0.00 91 1010.4
20260505225515 54 327 1.7 3.5 0.00 0.63 0.00 91 1010.5
20260505225404 54 325 1.7 3.5 0.00 0.63 0.00 91 1010.5
20260505225306 54 323 1.7 2.6 0.00 0.63 0.00 91 1010.6
20260505225204 54 320 0.9 2.6 0.00 0.63 0.00 91 1010.6
20260505225105 54 319 0.9 2.6 0.00 0.63 0.00 91 1010.7
20260505225004 54 319 0.9 1.7 0.00 0.63 0.00 91 1010.7
20260505224904 54 319 0.9 1.7 0.00 0.63 0.00 91 1010.7
20260505224803 54 319 0.9 1.7 0.00 0.63 0.00 91 1010.7
20260505224703 54 319 0.9 1.7 0.00 0.63 0.00 91 1010.7
20260505224603 54 319 0.9 1.7 0.00 0.63 0.00 91 1010.6
20260505224403 54 319 0.9 1.7 0.00 0.63 0.00 91 1010.7
20260505224305 54 319 0.9 1.7 0.00 0.63 0.00 91 1010.6
20260505224209 54 320 0.9 1.7 0.00 0.63 0.00 91 1010.6
20260505224004 54 321 0.9 1.7 0.00 0.63 0.00 91 1010.5
20260505223916 54 322 0.9 1.7 0.00 0.63 0.00 91 1010.6
20260505223803 54 322 0.9 1.7 0.00 0.63 0.00 91 1010.6
20260505223604 54 323 0.9 1.7 0.00 0.63 0.00 91 1010.6
20260505223504 54 323 0.9 1.7 0.00 0.63 0.00 91 1010.6
20260505223405 54 323 0.9 1.7 0.00 0.63 0.00 91 1010.7
20260505223305 54 323 0.9 1.7 0.00 0.63 0.00 91 1010.6
20260505223204 54 323 0.0 1.7 0.01 0.63 0.00 91 1010.7
20260505223104 54 323 0.0 1.7 0.01 0.63 0.00 91 1010.7
20260505223004 54 323 0.0 1.7 0.01 0.63 0.00 91 1010.7
20260505222909 54 323 0.0 1.7 0.01 0.63 0.00 91 1010.7
20260505222703 54 323 0.0 0.9 0.01 0.63 0.00 91 1010.7
20260505222615 54 323 0.0 0.9 0.01 0.63 0.00 91 1010.8
20260505222504 54 323 0.0 0.9 0.01 0.63 0.00 91 1010.6
20260505222404 53 323 0.0 0.9 0.01 0.63 0.00 91 1010.7
20260505222306 53 323 0.0 0.9 0.01 0.63 0.00 91 1010.6
20260505222204 53 323 0.0 0.9 0.01 0.63 0.00 91 1010.5
20260505222103 53 323 0.0 0.9 0.01 0.63 0.00 91 1010.6
20260505222003 53 323 0.0 0.9 0.01 0.63 0.00 91 1010.4
20260505221904 53 323 0.0 1.7 0.01 0.63 0.00 91 1010.5
20260505221803 53 323 0.9 1.7 0.01 0.63 0.00 91 1010.5
20260505221704 53 323 0.9 1.7 0.01 0.63 0.00 91 1010.5
20260505221607 53 324 0.9 1.7 0.01 0.63 0.00 91 1010.5
20260505221504 53 324 0.9 1.7 0.01 0.63 0.00 91 1010.5
20260505221404 53 324 0.9 1.7 0.01 0.63 0.00 91 1010.5
20260505221314 54 324 0.9 1.7 0.01 0.63 0.00 91 1010.4
20260505221204 54 324 0.9 1.7 0.01 0.63 0.00 91 1010.5
20260505221104 54 323 0.9 1.7 0.01 0.63 0.00 91 1010.5
20260505221004 54 320 0.9 1.7 0.01 0.63 0.00 91 1010.6
20260505220703 54 311 0.9 1.7 0.01 0.63 0.00 91 1010.7
20260505220604 54 309 0.9 1.7 0.01 0.63 0.00 91 1010.6
20260505220504 54 306 0.9 1.7 0.01 0.63 0.00 91 1010.7
20260505220404 54 304 0.9 1.7 0.01 0.63 0.00 91 1010.7
20260505220104 54 289 0.9 1.7 0.01 0.63 0.00 91 1010.7
20260505220006 54 287 0.9 1.7 0.01 0.63 0.00 91 1010.7
20260505215904 54 285 0.0 1.7 0.01 0.63 0.63 91 1010.7
20260505215804 54 285 0.0 1.7 0.01 0.63 0.63 91 1010.8
20260505215704 54 285 0.0 1.7 0.01 0.63 0.63 91 1010.8
20260505215604 54 285 0.0 1.7 0.01 0.63 0.63 91 1010.8
20260505215504 54 285 0.0 1.7 0.01 0.63 0.63 91 1010.8
20260505215410 54 285 0.0 1.7 0.01 0.63 0.63 91 1010.9
20260505215305 54 285 0.0 1.7 0.01 0.63 0.63 91 1010.8
20260505215204 54 286 0.0 0.9 0.01 0.63 0.63 91 1010.9
20260505215116 54 285 0.0 0.9 0.01 0.63 0.63 91 1010.9
20260505215004 54 285 0.0 0.9 0.01 0.63 0.63 91 1010.9
20260505214904 54 286 0.0 0.9 0.01 0.63 0.63 91 1011.0
20260505214803 54 285 0.0 0.9 0.01 0.63 0.63 91 1010.9
20260505214704 54 285 0.0 0.9 0.01 0.63 0.63 91 1011.0
20260505214603 54 298 0.0 1.7 0.01 0.63 0.63 91 1010.9
20260505214504 54 302 0.0 1.7 0.01 0.63 0.63 91 1010.9
20260505214403 54 305 0.0 1.7 0.01 0.63 0.63 91 1011.0
20260505214304 54 310 0.9 1.7 0.01 0.63 0.63 91 1010.9
20260505214204 54 312 0.9 1.7 0.01 0.63 0.63 91 1010.9
20260505214105 54 314 0.0 1.7 0.01 0.63 0.63 91 1010.9
20260505214004 54 320 0.9 1.7 0.01 0.63 0.63 91 1010.9
20260505213904 54 325 0.9 1.7 0.01 0.63 0.63 91 1011.0
20260505213804 54 332 0.9 1.7 0.01 0.63 0.63 91 1011.0
20260505213704 54 337 0.9 1.7 0.01 0.63 0.63 91 1011.0
20260505213603 54 340 0.9 1.7 0.01 0.63 0.63 91 1011.0
20260505213506 54 340 0.9 2.6 0.01 0.63 0.63 91 1011.0
20260505213304 54 339 0.9 2.6 0.00 0.62 0.62 91 1011.0
20260505213211 54 337 0.9 2.6 0.00 0.62 0.62 91 1010.9
20260505213104 54 336 0.9 2.6 0.00 0.62 0.62 91 1011.1
20260505213004 53 334 0.9 2.6 0.00 0.62 0.62 91 1011.0
20260505212916 53 332 0.9 2.6 0.00 0.62 0.62 91 1011.1
20260505212804 53 331 0.9 2.6 0.00 0.62 0.62 91 1011.0
20260505212704 54 330 0.9 2.6 0.00 0.62 0.62 91 1011.0
20260505212603 54 328 0.9 2.6 0.00 0.62 0.62 91 1011.1
20260505212504 54 324 0.9 2.6 0.00 0.62 0.62 91 1011.1
20260505212403 54 321 0.9 2.6 0.00 0.62 0.62 91 1011.1
20260505212305 54 319 0.9 1.7 0.00 0.62 0.62 91 1011.0
20260505212204 54 319 0.9 1.7 0.00 0.62 0.62 91 1011.1
20260505212104 53 319 0.9 1.7 0.00 0.62 0.62 91 1011.2
20260505212004 54 319 0.9 1.7 0.01 0.62 0.62 91 1011.1
20260505211904 54 319 0.9 1.7 0.01 0.62 0.62 91 1011.1
20260505211804 53 319 0.9 1.7 0.01 0.62 0.62 91 1011.1
20260505211703 53 319 0.9 1.7 0.01 0.62 0.62 91 1011.1
20260505211604 54 319 0.9 1.7 0.01 0.62 0.62 91 1011.1
20260505211404 54 321 0.9 2.6 0.01 0.62 0.62 91 1011.2
20260505211305 54 323 0.9 2.6 0.02 0.62 0.62 91 1011.2
20260505211204 54 324 0.9 2.6 0.02 0.62 0.62 91 1011.2
20260505211104 54 324 0.9 2.6 0.02 0.62 0.62 91 1011.2
20260505211004 53 325 0.9 2.6 0.02 0.62 0.62 91 1011.2
20260505210904 53 326 0.9 2.6 0.02 0.62 0.62 91 1011.3
20260505210804 53 327 0.9 2.6 0.02 0.62 0.62 91 1011.4
20260505210704 53 328 0.9 2.6 0.02 0.62 0.62 91 1011.4
20260505210603 53 330 0.9 2.6 0.02 0.62 0.62 91 1011.3
20260505210504 53 333 0.9 1.7 0.02 0.62 0.62 91 1011.2
20260505210304 54 333 0.0 1.7 0.02 0.62 0.62 91 1011.2
20260505210004 54 334 0.0 0.9 0.02 0.62 0.62 91 1011.2
20260505205906 54 334 0.0 0.9 0.02 0.62 0.62 91 1011.2
20260505205604 53 333 0.0 0.9 0.02 0.62 0.62 91 1011.2
20260505205504 53 333 0.0 0.9 0.02 0.62 0.62 91 1011.3
20260505205404 53 333 0.0 0.9 0.02 0.62 0.62 91 1011.4
20260505205305 53 333 0.0 0.9 0.02 0.62 0.62 91 1011.3
20260505205204 53 333 0.0 0.9 0.02 0.62 0.62 91 1011.4
20260505205103 53 333 0.0 1.7 0.02 0.62 0.62 91 1011.4
20260505205004 53 333 0.0 1.7 0.02 0.62 0.62 91 1011.4
20260505204903 53 333 0.0 1.7 0.02 0.62 0.62 91 1011.3
20260505204804 53 333 0.9 1.7 0.02 0.62 0.62 91 1011.3
20260505204604 53 333 0.9 1.7 0.03 0.62 0.62 91 1011.2
20260505204304 53 336 0.9 1.7 0.03 0.62 0.62 91 1011.4
20260505204204 53 336 0.9 1.7 0.03 0.62 0.62 91 1011.4
20260505204104 53 337 0.9 1.7 0.03 0.62 0.62 91 1011.5
20260505204005 53 338 0.9 1.7 0.03 0.62 0.62 91 1011.4
20260505203804 53 339 0.9 1.7 0.03 0.62 0.62 91 1011.4
20260505203704 53 339 0.9 1.7 0.03 0.62 0.62 91 1011.3
20260505203604 53 337 0.9 1.7 0.04 0.62 0.62 91 1011.4
20260505203505 53 335 0.9 1.7 0.04 0.62 0.62 91 1011.3
20260505203404 53 331 0.9 1.7 0.04 0.62 0.62 91 1011.5
20260505203204 54 325 0.9 1.7 0.04 0.62 0.62 91 1011.4
20260505203104 54 319 0.9 1.7 0.04 0.62 0.62 91 1011.4
20260505203004 54 314 0.9 1.7 0.04 0.62 0.62 91 1011.4
20260505202903 54 309 0.9 1.7 0.04 0.62 0.62 91 1011.5
20260505202803 54 302 0.9 1.7 0.04 0.62 0.62 91 1011.4
20260505202704 54 292 0.9 1.7 0.04 0.62 0.62 91 1011.5
20260505202604 54 285 0.9 1.7 0.04 0.62 0.62 91 1011.5
20260505202504 54 285 0.9 1.7 0.04 0.62 0.62 91 1011.4
20260505202404 54 285 0.9 1.7 0.04 0.62 0.62 91 1011.5
20260505202306 54 285 0.9 1.7 0.04 0.62 0.62 91 1011.5
20260505202204 54 285 0.9 1.7 0.04 0.62 0.62 91 1011.4
20260505202004 54 284 0.9 1.7 0.03 0.61 0.61 91 1011.5
20260505201903 54 284 0.0 1.7 0.03 0.61 0.61 91 1011.5
20260505201804 54 283 0.0 1.7 0.03 0.61 0.61 91 1011.5
20260505201704 54 281 0.0 1.7 0.03 0.61 0.61 91 1011.6
20260505201504 54 278 0.0 0.9 0.03 0.61 0.61 91 1011.5
20260505201204 54 275 0.0 0.9 0.02 0.61 0.61 91 1011.6
20260505201104 54 275 0.0 1.7 0.02 0.61 0.61 91 1011.5
20260505201005 54 275 0.0 1.7 0.02 0.61 0.61 91 1011.6
20260505200804 53 284 0.0 1.7 0.02 0.61 0.61 90 1011.5
20260505200704 54 285 0.0 1.7 0.03 0.61 0.61 90 1011.5
20260505200604 54 288 0.0 1.7 0.03 0.61 0.61 90 1011.6
20260505200504 54 289 0.0 1.7 0.03 0.61 0.61 90 1011.5
20260505200404 54 294 0.0 1.7 0.03 0.61 0.61 90 1011.5
20260505200304 54 303 0.0 1.7 0.03 0.61 0.61 91 1011.5
20260505200204 54 317 0.0 1.7 0.03 0.61 0.61 91 1011.5
20260505200105 54 346 0.0 1.7 0.03 0.61 0.61 90 1011.4
20260505200004 54 359 0.0 1.7 0.03 0.61 0.61 90 1011.4
20260505195904 54 1 0.0 0.9 0.03 0.61 0.61 91 1011.5
20260505195803 54 2 0.0 1.7 0.03 0.61 0.61 91 1011.4
20260505195704 54 2 0.0 1.7 0.03 0.61 0.61 91 1011.3
20260505195604 54 1 0.9 1.7 0.03 0.61 0.61 91 1011.4
20260505195504 54 1 0.9 1.7 0.02 0.60 0.60 90 1011.4
20260505195404 54 1 0.9 1.7 0.02 0.60 0.60 90 1011.4
20260505195305 54 1 0.9 1.7 0.02 0.60 0.60 90 1011.3
20260505195104 53 1 0.9 1.7 0.02 0.60 0.60 90 1011.5
20260505195008 53 2 0.0 1.7 0.02 0.60 0.60 90 1011.4
20260505194903 53 1 0.0 1.7 0.02 0.60 0.60 90 1011.4
20260505194805 53 1 0.0 1.7 0.02 0.59 0.59 90 1011.3
20260505194715 54 1 0.0 1.7 0.02 0.59 0.59 90 1011.3
20260505194604 54 1 0.0 0.9 0.02 0.59 0.59 90 1011.2
20260505194505 54 1 0.0 0.9 0.02 0.59 0.59 90 1011.2
20260505194403 54 1 0.0 0.9 0.02 0.59 0.59 90 1011.2
20260505194304 54 1 0.0 0.9 0.02 0.59 0.59 90 1011.3
20260505194203 54 1 0.0 0.9 0.02 0.59 0.59 90 1011.3
20260505194104 54 1 0.0 0.9 0.02 0.59 0.59 90 1011.3
20260505194004 54 1 0.0 0.9 0.02 0.59 0.59 90 1011.1
20260505193904 54 1 0.0 0.9 0.02 0.59 0.59 90 1011.2
20260505193805 54 1 0.0 0.9 0.02 0.59 0.59 90 1011.3
20260505193703 54 1 0.0 0.9 0.02 0.59 0.59 90 1011.2
20260505193604 54 1 0.0 0.9 0.01 0.58 0.58 90 1011.4
20260505193504 54 1 0.0 0.9 0.01 0.58 0.58 90 1011.3
20260505193403 54 1 0.0 0.9 0.01 0.58 0.58 90 1011.3
20260505193304 54 1 0.0 0.9 0.01 0.58 0.58 90 1011.3
20260505193204 54 1 0.0 0.9 0.01 0.58 0.58 90 1011.2
20260505193109 54 1 0.0 0.9 0.01 0.58 0.58 90 1011.2
20260505193004 54 1 0.0 0.9 0.01 0.58 0.58 90 1011.2
20260505192904 54 1 0.0 0.9 0.01 0.58 0.58 90 1011.1
20260505192815 54 1 0.0 0.9 0.01 0.58 0.58 90 1011.2
20260505192704 54 1 0.0 0.9 0.01 0.58 0.58 90 1011.2
20260505192603 54 1 0.0 0.9 0.01 0.58 0.58 90 1011.2
20260505192504 54 1 0.0 0.9 0.01 0.58 0.58 90 1011.2
20260505192404 54 8 0.0 0.9 0.01 0.58 0.58 90 1011.2
20260505192204 54 10 0.0 0.9 0.01 0.58 0.58 90 1011.3
20260505192104 54 11 0.0 0.9 0.01 0.58 0.58 90 1011.1
20260505192004 54 11 0.0 0.9 0.01 0.58 0.58 90 1011.1
20260505191904 54 15 0.0 0.9 0.01 0.58 0.58 90 1011.2
20260505191805 54 17 0.0 0.9 0.01 0.58 0.58 90 1011.2
20260505191705 54 19 0.0 0.9 0.01 0.58 0.58 90 1011.2
20260505191513 54 27 0.0 0.9 0.01 0.58 0.58 90 1011.2
20260505191404 54 30 0.0 0.9 0.01 0.58 0.58 89 1011.2
20260505191304 54 30 0.0 0.9 0.01 0.58 0.58 89 1011.1
20260505191005 54 30 0.0 0.9 0.01 0.58 0.58 90 1011.1
20260505190904 54 30 0.0 0.9 0.01 0.58 0.58 90 1011.0
20260505190804 54 30 0.0 0.9 0.00 0.57 0.57 90 1011.1
20260505190705 54 30 0.0 0.9 0.00 0.57 0.57 89 1011.1
20260505190604 54 30 0.0 0.9 0.00 0.57 0.57 89 1011.1
20260505190403 54 30 0.0 0.9 0.00 0.57 0.57 89 1011.1
20260505190305 54 30 0.0 0.9 0.00 0.57 0.57 89 1011.1
20260505190209 54 31 0.0 0.9 0.00 0.57 0.57 89 1011.0
20260505190105 54 25 0.0 0.9 0.00 0.57 0.57 89 1011.0
20260505190004 54 25 0.0 0.9 0.00 0.57 0.57 89 1011.1
20260505185704 54 19 0.0 0.9 0.00 0.57 0.57 90 1011.0
20260505185603 54 17 0.0 0.9 0.00 0.57 0.57 90 1011.1
20260505185504 54 16 0.0 0.9 0.00 0.57 0.57 89 1011.0
20260505185404 54 13 0.0 0.9 0.00 0.57 0.57 89 1011.0
20260505185305 54 11 0.0 0.9 0.00 0.57 0.57 89 1010.9
20260505185104 54 1 0.0 0.9 0.00 0.57 0.57 89 1010.9
20260505185004 54 1 0.0 0.9 0.01 0.57 0.57 89 1010.9
20260505184904 54 1 0.0 0.9 0.01 0.57 0.57 89 1010.9
20260505184804 54 1 0.0 0.9 0.01 0.57 0.57 89 1010.9
20260505184704 54 1 0.0 0.9 0.01 0.57 0.57 89 1010.9
20260505184605 54 1 0.0 0.9 0.01 0.57 0.57 89 1010.9
20260505184504 54 1 0.0 0.9 0.01 0.57 0.57 89 1011.0
20260505184304 54 7 0.0 1.7 0.01 0.57 0.57 89 1010.9
20260505184204 54 9 0.0 1.7 0.01 0.57 0.57 89 1011.0
20260505184003 54 11 0.0 1.7 0.01 0.57 0.57 89 1010.9
20260505183904 54 11 0.0 1.7 0.01 0.57 0.57 89 1011.0
20260505183803 54 11 0.0 1.7 0.01 0.57 0.57 89 1010.9
20260505183708 54 11 0.0 1.7 0.01 0.57 0.57 89 1011.0
20260505183604 54 10 0.0 1.7 0.01 0.57 0.57 89 1010.9
20260505183504 54 5 0.0 1.7 0.01 0.57 0.57 89 1010.9
20260505183415 54 3 0.0 1.7 0.01 0.57 0.57 89 1010.9
20260505183304 54 1 0.0 1.7 0.01 0.57 0.57 89 1011.0
20260505183104 54 355 0.0 1.7 0.01 0.57 0.57 90 1011.0
20260505183004 54 354 0.0 1.7 0.01 0.57 0.57 89 1010.9
20260505182904 54 351 0.0 1.7 0.01 0.57 0.57 89 1010.9
20260505182804 54 351 0.0 1.7 0.01 0.57 0.57 89 1010.9
20260505182704 54 350 0.0 1.7 0.01 0.57 0.57 89 1011.0
20260505182604 54 350 0.0 1.7 0.01 0.57 0.57 89 1010.9
20260505182504 54 350 0.0 1.7 0.01 0.57 0.57 90 1010.9
20260505182410 54 350 0.0 0.9 0.01 0.57 0.57 89 1011.0
20260505182306 54 350 0.0 0.9 0.01 0.57 0.57 89 1011.0
20260505182203 54 350 0.0 0.9 0.01 0.57 0.57 89 1011.0
20260505182115 54 350 0.0 0.9 0.01 0.57 0.57 90 1010.9
20260505181904 54 350 0.0 0.9 0.01 0.57 0.57 89 1011.0
20260505181804 54 350 0.0 0.9 0.01 0.57 0.57 89 1011.0
20260505181704 54 350 0.0 0.9 0.01 0.57 0.57 90 1010.9
20260505181604 54 350 0.0 0.9 0.01 0.57 0.57 90 1010.9
20260505181505 54 350 0.0 0.9 0.01 0.57 0.57 89 1010.9
20260505181403 54 350 0.0 0.9 0.01 0.57 0.57 89 1010.9
20260505181304 54 350 0.0 0.9 0.01 0.57 0.57 89 1010.9
20260505181103 54 350 0.0 0.9 0.01 0.57 0.57 90 1010.9
20260505181005 54 350 0.0 1.7 0.01 0.57 0.57 89 1011.0
20260505180903 54 350 0.0 1.7 0.01 0.57 0.57 89 1011.0
20260505180809 54 350 0.0 1.7 0.01 0.57 0.57 90 1010.9
20260505180604 54 350 0.0 1.7 0.01 0.57 0.57 89 1010.9
20260505180404 54 349 0.0 1.7 0.01 0.57 0.57 89 1010.9
20260505180203 54 349 0.9 1.7 0.01 0.57 0.57 89 1010.9
20260505180104 54 349 0.9 1.7 0.01 0.57 0.57 89 1010.8
20260505180004 54 349 0.0 1.7 0.01 0.57 0.57 89 1011.0
20260505175803 54 350 0.9 1.7 0.01 0.57 0.57 89 1011.0
20260505175704 54 350 0.9 1.7 0.01 0.57 0.57 89 1010.9
20260505175604 54 351 0.9 1.7 0.01 0.57 0.57 89 1011.0
20260505175510 54 352 0.9 1.7 0.01 0.57 0.57 89 1010.9
20260505175404 54 352 0.0 1.7 0.01 0.57 0.57 89 1010.9
20260505175305 54 353 0.0 1.7 0.01 0.57 0.57 89 1010.9
20260505175104 54 354 0.9 1.7 0.01 0.57 0.57 89 1010.9
20260505175004 54 355 0.9 1.7 0.00 0.57 0.57 89 1011.0
20260505174904 54 356 0.0 1.7 0.00 0.57 0.57 89 1011.0
20260505174803 54 357 0.0 1.7 0.00 0.57 0.57 89 1010.9
20260505174605 54 355 0.0 1.7 0.00 0.57 0.57 89 1011.0
20260505174504 54 354 0.0 1.7 0.00 0.57 0.57 89 1011.0
20260505174404 54 354 0.0 1.7 0.00 0.57 0.57 89 1010.8
20260505174303 54 354 0.9 1.7 0.00 0.57 0.57 89 1010.9
20260505174209 54 352 0.0 1.7 0.00 0.57 0.57 89 1010.9
20260505174104 54 352 0.0 1.7 0.00 0.57 0.57 89 1010.9
20260505173916 54 351 0.0 0.9 0.00 0.57 0.57 89 1010.9
20260505173804 54 351 0.0 0.9 0.00 0.57 0.57 89 1010.9
20260505173703 54 351 0.0 0.9 0.00 0.57 0.57 89 1011.0
20260505173603 54 351 0.0 0.9 0.00 0.57 0.57 89 1010.9
20260505173504 54 352 0.0 0.9 0.00 0.57 0.57 89 1010.9
20260505173404 54 352 0.0 0.9 0.00 0.57 0.57 89 1010.9
20260505173304 54 352 0.0 0.9 0.00 0.57 0.57 89 1010.9
20260505173204 54 351 0.0 0.9 0.00 0.57 0.57 89 1010.9
20260505173004 54 351 0.0 1.7 0.00 0.57 0.57 89 1011.0
20260505172904 54 351 0.0 1.7 0.00 0.57 0.57 89 1011.0
20260505172704 54 352 0.0 1.7 0.00 0.57 0.57 89 1010.9
20260505172610 54 352 0.0 1.7 0.00 0.57 0.57 89 1011.0
20260505172504 54 352 0.0 1.7 0.00 0.57 0.57 89 1011.0
20260505172204 54 20 0.9 1.7 0.00 0.57 0.57 90 1011.0
20260505172103 54 44 0.9 1.7 0.00 0.57 0.57 90 1011.0
20260505172004 54 69 0.9 1.7 0.00 0.57 0.57 89 1010.9
20260505171904 54 85 0.9 2.6 0.00 0.57 0.57 90 1011.0
20260505171804 54 95 0.9 2.6 0.00 0.57 0.57 89 1011.0
20260505171504 54 115 0.9 2.6 0.00 0.57 0.57 89 1011.0
20260505171404 54 121 0.9 2.6 0.00 0.57 0.57 89 1011.0
20260505171205 54 123 0.9 2.6 0.00 0.57 0.57 89 1011.1
20260505171104 54 124 0.9 2.6 0.00 0.57 0.57 89 1011.1
20260505171009 54 125 0.9 2.6 0.00 0.57 0.57 89 1011.1
20260505170904 54 125 0.9 2.6 0.00 0.57 0.57 90 1011.1
20260505170805 54 126 0.9 1.7 0.00 0.57 0.57 89 1011.0
20260505170604 54 126 0.9 1.7 0.00 0.57 0.57 89 1011.0
20260505170504 54 126 0.9 1.7 0.00 0.57 0.57 89 1011.0
20260505170403 54 125 0.9 1.7 0.00 0.57 0.57 89 1011.0
20260505170304 54 125 0.9 1.7 0.00 0.57 0.57 89 1011.1
20260505170203 54 124 0.9 1.7 0.00 0.57 0.57 89 1011.1
20260505170004 54 123 0.9 0.9 0.00 0.57 0.57 89 1011.1
20260505165804 54 123 0.9 1.7 0.00 0.57 0.57 89 1011.1
20260505165704 54 123 0.9 1.7 0.00 0.57 0.57 89 1011.2
20260505165604 54 123 0.9 1.7 0.00 0.57 0.57 90 1011.2
20260505165504 54 123 0.0 1.7 0.00 0.57 0.57 90 1011.1
20260505165306 54 123 0.0 1.7 0.00 0.57 0.57 89 1011.1
20260505165204 54 123 0.0 1.7 0.00 0.57 0.57 89 1011.2
20260505165116 54 123 0.0 1.7 0.00 0.57 0.57 89 1011.1
20260505165004 54 124 0.0 1.7 0.00 0.57 0.57 89 1011.2
20260505164804 54 125 0.0 0.9 0.00 0.57 0.57 89 1011.1
20260505164703 54 125 0.0 0.9 0.00 0.57 0.57 89 1011.2
20260505164604 54 125 0.0 0.9 0.00 0.57 0.57 89 1011.1
20260505164403 54 125 0.0 0.9 0.00 0.57 0.57 89 1011.2
20260505164304 54 125 0.0 0.9 0.00 0.57 0.57 89 1011.2
20260505164204 54 125 0.0 0.9 0.00 0.57 0.57 89 1011.1
20260505164109 54 125 0.0 0.9 0.00 0.57 0.57 89 1011.2
20260505164004 54 125 0.0 0.9 0.00 0.57 0.57 89 1011.1
20260505163904 54 125 0.0 0.9 0.00 0.57 0.57 89 1011.2
20260505163815 54 125 0.0 0.9 0.00 0.57 0.57 89 1011.2
20260505163704 54 126 0.0 0.9 0.00 0.57 0.57 89 1011.2
20260505163604 54 126 0.0 0.9 0.00 0.57 0.57 89 1011.2
20260505163504 54 127 0.0 0.9 0.00 0.57 0.57 89 1011.2
20260505163404 54 128 0.0 0.9 0.00 0.57 0.57 89 1011.2
20260505163304 54 129 0.0 0.9 0.00 0.57 0.57 89 1011.2
20260505163204 54 126 0.0 0.9 0.00 0.57 0.57 88 1011.2
20260505163004 54 75 0.0 0.9 0.00 0.57 0.57 88 1011.3
20260505162903 54 72 0.0 0.9 0.00 0.57 0.57 88 1011.2
20260505162806 54 65 0.0 0.9 0.00 0.57 0.57 88 1011.4
20260505162704 54 48 0.0 0.9 0.00 0.57 0.57 88 1011.2
20260505162604 54 43 0.0 0.9 0.00 0.57 0.57 88 1011.3
20260505162515 54 30 0.0 0.9 0.00 0.57 0.57 88 1011.2
20260505162404 54 21 0.0 0.9 0.00 0.57 0.57 88 1011.2
20260505162203 54 15 0.0 0.9 0.00 0.57 0.57 88 1011.2
20260505162004 54 35 0.0 0.9 0.00 0.57 0.57 88 1011.2
20260505161905 54 36 0.0 0.9 0.00 0.57 0.57 88 1011.4
20260505161803 54 42 0.0 0.9 0.00 0.57 0.57 88 1011.3
20260505161505 54 72 0.0 0.9 0.00 0.57 0.57 87 1011.3
20260505161404 54 81 0.0 0.9 0.00 0.57 0.57 87 1011.3
20260505161303 54 88 0.0 0.9 0.00 0.57 0.57 88 1011.4
20260505161207 54 89 0.0 0.9 0.00 0.57 0.57 87 1011.3
20260505161104 54 89 0.0 0.9 0.00 0.57 0.57 87 1011.3
20260505161004 54 95 0.0 0.9 0.00 0.57 0.57 87 1011.3
20260505160915 54 98 0.0 0.9 0.00 0.57 0.57 87 1011.2
20260505160805 54 111 0.0 0.9 0.00 0.57 0.57 87 1011.4
20260505160704 54 111 0.0 0.9 0.00 0.57 0.57 87 1011.2
20260505160603 54 110 0.0 0.9 0.00 0.57 0.57 87 1011.3
20260505160504 54 108 0.0 0.9 0.00 0.57 0.57 88 1011.2
20260505160403 54 106 0.0 0.9 0.00 0.57 0.57 87 1011.3
20260505160303 54 98 0.0 0.9 0.00 0.57 0.57 87 1011.3
20260505160204 54 95 0.0 0.9 0.00 0.57 0.57 88 1011.2
20260505160104 54 95 0.0 0.9 0.00 0.57 0.57 88 1011.3
20260505153204 54 21 0.9 2.6 0.00 0.57 0.57 88 1011.6
20260505153105 54 10 0.9 2.6 0.00 0.57 0.57 88 1011.6
20260505153015 54 6 0.9 2.6 0.00 0.57 0.57 88 1011.6
20260505152904 54 6 0.9 2.6 0.00 0.57 0.57 88 1011.6
20260505152804 54 6 0.9 2.6 0.00 0.57 0.57 88 1011.5
20260505152704 54 6 0.9 2.6 0.00 0.57 0.57 88 1011.5
20260505152604 54 6 0.9 2.6 0.00 0.57 0.57 87 1011.5
20260505152504 54 2 0.9 2.6 0.00 0.57 0.57 88 1011.4
20260505152403 54 342 0.9 1.7 0.00 0.57 0.57 88 1011.6
20260505152305 54 335 0.9 1.7 0.00 0.57 0.57 88 1011.5
20260505152204 54 337 0.0 1.7 0.00 0.57 0.57 88 1011.6
20260505152104 54 352 0.0 1.7 0.00 0.57 0.57 88 1011.5
20260505152004 54 355 0.0 1.7 0.00 0.57 0.57 88 1011.5
20260505151904 54 352 0.0 1.7 0.00 0.57 0.57 88 1011.4
20260505151708 54 349 0.9 1.7 0.00 0.57 0.57 88 1011.5
20260505151605 54 343 0.9 1.7 0.00 0.57 0.57 88 1011.5
20260505151504 54 340 0.9 1.7 0.00 0.57 0.57 89 1011.6
20260505151414 54 331 0.9 1.7 0.00 0.57 0.57 89 1011.6
20260505151304 54 326 0.0 1.7 0.00 0.57 0.57 88 1011.7
20260505151204 54 318 0.0 1.7 0.00 0.57 0.57 88 1011.6
20260505151104 54 274 0.0 1.7 0.00 0.57 0.57 88 1011.5
20260505151004 54 260 0.0 1.7 0.00 0.57 0.57 88 1011.6
20260505150903 54 232 0.0 1.7 0.00 0.57 0.57 89 1011.5
20260505150804 54 225 0.0 1.7 0.00 0.57 0.57 89 1011.6
20260505150504 54 217 0.0 1.7 0.00 0.57 0.57 88 1011.5
20260505150410 54 218 0.0 1.7 0.00 0.57 0.57 88 1011.6
20260505150303 54 218 0.0 1.7 0.00 0.57 0.57 89 1011.6
20260505150204 54 218 0.0 1.7 0.00 0.57 0.57 89 1011.4
20260505140616 53 356 1.7 3.5 0.02 0.57 0.57 90 1011.8
20260505140504 53 356 1.7 3.5 0.02 0.57 0.57 89 1011.8
20260505140404 53 355 1.7 3.5 0.02 0.57 0.57 90 1011.8
20260505140304 53 352 1.7 3.5 0.02 0.57 0.57 90 1011.7
20260505140205 53 350 1.7 3.5 0.02 0.57 0.57 90 1011.7
20260505140103 53 353 1.7 3.5 0.02 0.57 0.57 90 1011.7
20260505130304 54 9 2.6 4.3 0.01 0.55 0.55 89 1012.1
20260505130203 54 9 2.6 4.3 0.01 0.55 0.55 89 1012.1
20260505130104 54 6 1.7 4.3 0.01 0.55 0.55 89 1012.1
20260505125004 54 3 1.7 3.5 0.02 0.55 0.55 89 1012.1
20260505124903 54 2 1.7 3.5 0.02 0.55 0.55 89 1012.1
20260505124803 54 1 1.7 4.3 0.01 0.54 0.54 89 1012.2
20260505124704 54 359 1.7 4.3 0.01 0.54 0.54 89 1012.1
20260505124604 54 357 1.7 5.2 0.01 0.54 0.54 89 1012.2
20260505124504 54 357 2.6 5.2 0.01 0.54 0.54 89 1012.1
20260505124304 54 358 2.6 5.2 0.01 0.54 0.54 89 1012.1
20260505124208 54 357 2.6 5.2 0.01 0.54 0.54 89 1012.1
20260505124103 54 356 1.7 5.2 0.01 0.54 0.54 89 1012.1
20260505124005 54 355 2.6 5.2 0.01 0.54 0.54 89 1012.1
20260505123804 54 356 2.6 5.2 0.01 0.54 0.54 88 1012.0
20260505123604 54 359 2.6 5.2 0.01 0.54 0.54 89 1012.0
20260505123504 54 358 2.6 5.2 0.01 0.54 0.54 88 1012.0
20260505123404 54 358 2.6 5.2 0.01 0.54 0.54 89 1012.0
20260505123304 54 356 2.6 5.2 0.01 0.54 0.54 89 1012.1
20260505123203 54 354 2.6 5.2 0.01 0.54 0.54 88 1012.1
20260505123104 54 356 2.6 5.2 0.01 0.54 0.54 88 1011.9
20260505122903 54 356 2.6 5.2 0.01 0.54 0.54 88 1011.9
20260505122703 54 356 3.5 6.1 0.01 0.54 0.54 88 1011.9
20260505122610 54 355 3.5 6.1 0.01 0.54 0.54 88 1011.9
20260505122403 54 355 3.5 6.1 0.01 0.54 0.54 88 1012.0
20260505122315 54 357 3.5 6.1 0.01 0.54 0.54 88 1012.0
20260505122204 54 1 3.5 6.1 0.01 0.54 0.54 88 1012.0
20260505122103 54 359 3.5 6.1 0.01 0.54 0.54 88 1012.0
20260505122004 54 359 2.6 6.1 0.01 0.54 0.54 88 1012.1
20260505121803 54 358 2.6 5.2 0.01 0.54 0.54 88 1012.0
20260505121704 54 357 2.6 5.2 0.01 0.54 0.54 88 1012.0
20260505121504 54 357 2.6 5.2 0.01 0.54 0.54 88 1012.1
20260505121404 54 358 2.6 5.2 0.01 0.54 0.54 88 1012.0
20260505121307 54 358 2.6 5.2 0.01 0.54 0.54 88 1012.0
20260505121204 54 355 2.6 5.2 0.01 0.54 0.54 88 1012.0
20260505121103 54 358 2.6 5.2 0.01 0.54 0.54 88 1012.0
20260505121014 54 359 2.6 5.2 0.01 0.54 0.54 88 1012.1
20260505120904 54 6 2.6 5.2 0.02 0.54 0.54 88 1012.0
20260505120803 54 8 2.6 5.2 0.02 0.54 0.54 88 1011.9
20260505120703 54 12 2.6 4.3 0.02 0.54 0.54 88 1012.0
20260505120603 54 15 1.7 4.3 0.02 0.54 0.54 88 1012.0
20260505120504 54 16 1.7 6.1 0.02 0.54 0.54 88 1012.0
20260505120404 54 12 2.6 6.1 0.02 0.54 0.54 88 1012.0
20260505120304 54 11 2.6 6.1 0.02 0.54 0.54 88 1012.0
20260505120204 54 12 2.6 6.1 0.02 0.54 0.54 88 1012.1
20260505120104 54 10 2.6 6.1 0.02 0.54 0.54 88 1012.0
20260505120009 54 9 2.6 6.1 0.02 0.54 0.54 88 1012.1
20260505115903 54 9 3.5 6.1 0.02 0.54 0.54 88 1012.0
20260505115604 54 10 3.5 6.1 0.02 0.54 0.54 88 1012.1
20260505115504 54 9 3.5 6.1 0.01 0.54 0.54 88 1012.1
20260505115403 54 11 3.5 5.2 0.01 0.54 0.54 88 1012.1
20260505115305 54 10 3.5 5.2 0.01 0.54 0.54 88 1012.1
20260505115204 54 10 3.5 6.1 0.01 0.54 0.54 88 1012.2
20260505115005 54 10 3.5 6.1 0.01 0.54 0.54 87 1012.1
20260505114904 54 7 3.5 6.1 0.01 0.54 0.54 88 1012.1
20260505114804 55 5 3.5 6.1 0.01 0.54 0.54 88 1012.0
20260505114704 55 4 3.5 6.1 0.01 0.54 0.54 88 1012.1
20260505114603 55 2 3.5 6.1 0.01 0.54 0.54 88 1012.1
20260505114408 55 3 3.5 6.1 0.01 0.54 0.54 87 1012.1
20260505114304 55 4 3.5 6.1 0.01 0.54 0.54 87 1012.1
20260505114203 55 3 3.5 6.1 0.01 0.54 0.54 87 1012.2
20260505114115 55 3 3.5 6.1 0.01 0.54 0.54 88 1012.1
20260505113904 55 359 3.5 6.1 0.01 0.54 0.54 87 1012.2
20260505113804 55 358 3.5 6.1 0.01 0.54 0.54 87 1012.2
20260505113704 55 358 2.6 6.1 0.01 0.54 0.54 88 1012.2
20260505113605 55 1 2.6 6.1 0.01 0.54 0.54 87 1012.2
20260505113504 55 359 2.6 5.2 0.01 0.54 0.54 87 1012.1
20260505113403 55 358 2.6 5.2 0.01 0.54 0.54 87 1012.1
20260505113304 55 358 2.6 5.2 0.01 0.54 0.54 87 1012.1
20260505113204 55 359 2.6 5.2 0.01 0.54 0.54 87 1012.2
20260505113103 55 358 2.6 5.2 0.01 0.54 0.54 87 1012.1
20260505113004 55 3 2.6 5.2 0.01 0.54 0.54 87 1012.1
20260505112903 55 11 1.7 4.3 0.01 0.54 0.54 87 1012.1
20260505112810 55 15 2.6 4.3 0.01 0.54 0.54 87 1012.2
20260505112704 55 15 2.6 4.3 0.01 0.54 0.54 87 1012.2
20260505112604 55 16 2.6 5.2 0.01 0.54 0.54 86 1012.2
20260505112518 55 23 2.6 5.2 0.01 0.54 0.54 86 1012.2
20260505112104 55 61 2.6 5.2 0.01 0.54 0.54 86 1012.2
20260505111904 56 68 2.6 5.2 0.01 0.54 0.54 86 1012.1
20260505111804 56 68 2.6 5.2 0.01 0.54 0.54 87 1012.2
20260505111703 55 75 1.7 5.2 0.01 0.54 0.54 86 1012.3
20260505111604 55 76 1.7 4.3 0.01 0.54 0.54 86 1012.2
20260505111504 55 73 1.7 4.3 0.01 0.54 0.54 86 1012.2
20260505111405 55 68 1.7 4.3 0.01 0.54 0.54 87 1012.2
20260505111303 55 72 1.7 4.3 0.01 0.54 0.54 86 1012.2
20260505111204 55 68 0.9 4.3 0.01 0.54 0.54 87 1012.3
20260505111104 55 74 0.9 4.3 0.01 0.54 0.54 86 1012.2
20260505111005 55 66 0.9 2.6 0.00 0.53 0.53 86 1012.2
20260505110903 55 43 0.9 5.2 0.00 0.53 0.53 87 1012.2
20260505110804 55 23 1.7 6.1 0.00 0.53 0.53 87 1012.3
20260505110703 55 19 1.7 7.0 0.00 0.53 0.53 87 1012.3
20260505110603 55 15 1.7 7.0 0.00 0.53 0.53 86 1012.3
20260505110504 55 12 1.7 7.0 0.00 0.53 0.53 87 1012.3
20260505110404 55 8 1.7 7.0 0.00 0.53 0.53 87 1012.3
20260505110303 55 359 2.6 7.0 0.00 0.53 0.53 87 1012.4
20260505110204 55 354 2.6 7.0 0.00 0.53 0.53 87 1012.3
20260505110104 55 352 2.6 7.0 0.00 0.53 0.53 87 1012.3
20260505102204 55 355 1.7 4.3 0.01 0.53 0.53 88 1012.6
20260505102114 54 354 1.7 4.3 0.01 0.53 0.53 87 1012.5
20260505102004 54 352 1.7 4.3 0.01 0.53 0.53 87 1012.5
20260505101804 55 352 1.7 3.5 0.01 0.53 0.53 87 1012.5
20260505101704 55 350 1.7 3.5 0.01 0.53 0.53 87 1012.5
20260505101603 55 347 0.9 3.5 0.01 0.53 0.53 87 1012.5
20260505101504 55 345 0.9 3.5 0.01 0.53 0.53 87 1012.6
20260505101403 55 341 0.9 3.5 0.01 0.53 0.53 87 1012.5
20260505101304 55 327 0.9 2.6 0.01 0.53 0.53 87 1012.5
20260505101204 55 332 0.9 2.6 0.02 0.53 0.53 87 1012.5
20260505101108 55 335 0.9 2.6 0.02 0.53 0.53 88 1012.5
20260505101004 55 339 0.9 2.6 0.02 0.53 0.53 88 1012.4
20260505100814 55 343 0.9 2.6 0.02 0.53 0.53 88 1012.5
20260505100704 55 349 1.7 4.3 0.02 0.53 0.53 88 1012.6
20260505100603 54 352 1.7 4.3 0.02 0.53 0.53 87 1012.6
20260505100404 55 357 1.7 4.3 0.02 0.53 0.53 88 1012.5
20260505100304 55 359 1.7 4.3 0.02 0.53 0.53 88 1012.6
20260505100204 55 1 1.7 4.3 0.02 0.53 0.53 88 1012.6
20260505100004 55 5 1.7 4.3 0.02 0.53 0.53 88 1012.5
20260505095904 55 5 1.7 4.3 0.02 0.53 0.53 88 1012.5
20260505095703 55 4 1.7 3.5 0.02 0.53 0.53 88 1012.6
20260505095604 55 3 0.9 3.5 0.02 0.53 0.53 88 1012.5
20260505095515 55 4 0.9 3.5 0.02 0.53 0.53 88 1012.6
20260505095403 55 5 0.9 3.5 0.02 0.53 0.53 88 1012.6
20260505095204 54 3 0.9 2.6 0.02 0.53 0.53 88 1012.6
20260505095104 54 358 1.7 3.5 0.02 0.53 0.53 88 1012.7
20260505095004 54 359 1.7 4.3 0.02 0.53 0.53 88 1012.6
20260505094904 54 1 1.7 4.3 0.02 0.53 0.53 88 1012.6
20260505094805 54 359 1.7 4.3 0.02 0.53 0.53 88 1012.6
20260505094513 54 358 1.7 4.3 0.02 0.53 0.53 88 1012.7
20260505094403 54 355 1.7 4.3 0.02 0.53 0.53 88 1012.6
20260505094304 54 356 1.7 4.3 0.02 0.53 0.53 88 1012.6
20260505094203 54 355 1.7 4.3 0.02 0.53 0.53 87 1012.6
20260505094103 54 355 1.7 4.3 0.02 0.53 0.53 88 1012.7
20260505093903 54 355 1.7 3.5 0.02 0.53 0.53 88 1012.7
20260505093703 54 357 1.7 3.5 0.02 0.53 0.53 88 1012.7
20260505093604 54 354 0.9 2.6 0.02 0.53 0.53 88 1012.6
20260505093507 54 358 0.9 2.6 0.02 0.53 0.53 88 1012.7
20260505093404 54 356 0.9 2.6 0.02 0.53 0.53 88 1012.6
20260505093304 54 2 0.9 2.6 0.02 0.53 0.53 88 1012.6
20260505093214 54 3 0.9 2.6 0.02 0.53 0.53 88 1012.7
20260505093104 54 10 0.9 2.6 0.02 0.53 0.53 88 1012.6
20260505092903 54 6 0.9 2.6 0.02 0.53 0.53 88 1012.6
20260505092804 54 3 0.9 2.6 0.02 0.53 0.53 88 1012.6
20260505092704 54 349 0.9 2.6 0.01 0.52 0.52 88 1012.7
20260505092604 54 7 0.9 2.6 0.01 0.52 0.52 88 1012.7
20260505092504 54 1 0.9 2.6 0.01 0.52 0.52 88 1012.7
20260505092305 54 10 0.9 2.6 0.01 0.52 0.52 88 1012.7
20260505092212 54 16 0.9 2.6 0.02 0.52 0.52 88 1012.8
20260505092103 54 18 0.9 2.6 0.02 0.52 0.52 88 1012.8
20260505092004 54 25 0.9 2.6 0.02 0.52 0.52 88 1012.7
20260505091904 54 20 0.9 2.6 0.02 0.52 0.52 88 1012.8
20260505091603 54 21 0.9 2.6 0.02 0.52 0.52 88 1012.8
20260505091504 54 23 0.9 2.6 0.02 0.52 0.52 88 1012.7
20260505091404 54 24 0.9 2.6 0.02 0.52 0.52 88 1012.7
20260505091303 54 21 0.9 2.6 0.02 0.52 0.52 88 1012.7
20260505091207 54 17 0.9 2.6 0.01 0.51 0.51 88 1012.7
20260505091104 54 34 0.9 3.5 0.01 0.51 0.51 88 1012.7
20260505091004 54 46 0.9 3.5 0.01 0.51 0.51 89 1012.7
20260505090804 54 52 0.9 3.5 0.01 0.51 0.51 89 1012.7
20260505090504 54 73 0.9 3.5 0.01 0.51 0.51 89 1012.6
20260505090403 54 68 0.9 4.3 0.01 0.51 0.51 89 1012.6
20260505090304 54 69 1.7 4.3 0.01 0.51 0.51 89 1012.6
20260505090204 54 67 1.7 4.3 0.01 0.51 0.51 89 1012.6
20260505090004 54 66 1.7 4.3 0.01 0.51 0.51 90 1012.6
20260505085908 54 89 1.7 4.3 0.01 0.51 0.51 89 1012.5
20260505085804 53 90 1.7 4.3 0.01 0.51 0.51 89 1012.7
20260505085703 53 89 1.7 4.3 0.01 0.51 0.51 89 1012.6
20260505085504 54 92 1.7 4.3 0.02 0.51 0.51 89 1012.5
20260505085304 54 120 0.9 3.5 0.02 0.51 0.51 90 1012.6
20260505085204 54 119 0.9 3.5 0.02 0.51 0.51 90 1012.4
20260505085104 54 118 0.9 3.5 0.02 0.51 0.51 90 1012.6
20260505084903 54 90 0.9 3.5 0.02 0.51 0.51 90 1012.6
20260505084803 54 85 0.9 3.5 0.02 0.51 0.51 90 1012.6
20260505084703 54 70 0.9 1.7 0.02 0.51 0.51 90 1012.8
20260505084607 53 66 0.9 1.7 0.02 0.51 0.51 90 1012.7
20260505084504 53 63 0.9 1.7 0.02 0.51 0.51 90 1012.7
20260505084404 53 40 0.9 1.7 0.02 0.51 0.51 90 1012.7
20260505084203 53 1 0.9 3.5 0.02 0.51 0.51 90 1012.8
20260505084104 53 351 0.9 3.5 0.02 0.51 0.51 90 1012.8
20260505084004 53 350 0.9 3.5 0.02 0.51 0.51 90 1012.8
20260505083904 53 349 0.9 3.5 0.02 0.51 0.51 90 1012.7
20260505083803 53 350 0.9 3.5 0.03 0.51 0.51 90 1012.8
20260505083703 53 351 1.7 3.5 0.03 0.51 0.51 90 1012.8
20260505083604 53 353 1.7 5.2 0.03 0.51 0.51 90 1012.7
20260505083504 53 354 1.7 5.2 0.03 0.51 0.51 90 1012.8
20260505083404 53 355 2.6 5.2 0.03 0.51 0.51 90 1012.7
20260505083306 53 355 2.6 5.2 0.04 0.51 0.51 90 1012.7
20260505083204 53 354 2.6 5.2 0.04 0.51 0.51 90 1012.7
20260505083105 53 354 2.6 5.2 0.04 0.51 0.51 90 1012.8
20260505083013 53 356 2.6 5.2 0.04 0.51 0.51 90 1012.8
20260505082804 53 357 2.6 5.2 0.05 0.51 0.51 90 1012.7
20260505082703 53 357 2.6 5.2 0.06 0.51 0.51 90 1012.8
20260505082603 53 356 2.6 5.2 0.06 0.51 0.51 90 1012.7
20260505082404 53 355 2.6 5.2 0.06 0.51 0.51 90 1012.8
20260505082203 53 356 2.6 5.2 0.07 0.50 0.50 90 1012.8
20260505082103 53 357 2.6 5.2 0.07 0.50 0.50 90 1012.8
20260505082006 53 356 2.6 5.2 0.07 0.50 0.50 90 1012.8
20260505081904 53 356 2.6 5.2 0.08 0.50 0.50 90 1012.8
20260505081804 53 356 2.6 5.2 0.08 0.50 0.50 90 1012.8
20260505081603 53 359 3.5 5.2 0.09 0.50 0.50 90 1012.7
20260505081504 53 359 3.5 5.2 0.09 0.50 0.50 90 1012.7
20260505081403 53 358 2.6 5.2 0.10 0.50 0.50 91 1012.6
20260505081303 53 357 2.6 5.2 0.10 0.50 0.50 91 1012.8
20260505081204 53 355 3.5 5.2 0.10 0.50 0.50 91 1012.7
20260505081104 53 356 3.5 5.2 0.11 0.50 0.50 91 1012.7
20260505081004 53 356 3.5 5.2 0.11 0.50 0.50 91 1012.7
20260505080904 53 356 2.6 5.2 0.11 0.50 0.50 91 1012.7
20260505080805 53 359 2.6 5.2 0.11 0.50 0.50 91 1012.6
20260505080704 53 4 2.6 5.2 0.12 0.50 0.50 91 1012.7
20260505080604 53 5 2.6 5.2 0.12 0.50 0.50 91 1012.7
20260505080504 53 6 2.6 5.2 0.13 0.50 0.50 91 1012.7
20260505080405 53 12 2.6 6.1 0.13 0.50 0.50 91 1012.6
20260505080303 53 17 2.6 6.1 0.13 0.50 0.50 91 1012.6
20260505080203 52 26 2.6 6.1 0.14 0.50 0.50 91 1012.8
20260505080113 52 30 2.6 6.1 0.14 0.50 0.50 91 1012.8
20260505080004 52 29 2.6 6.1 0.14 0.50 0.50 91 1012.7
20260505075904 52 28 2.6 6.1 0.15 0.50 0.50 90 1012.8
20260505075803 52 27 2.6 6.1 0.15 0.50 0.50 91 1012.8
20260505075703 52 27 1.7 6.1 0.16 0.50 0.50 91 1012.8
20260505075603 52 26 1.7 6.1 0.15 0.50 0.50 90 1012.8
20260505075504 52 22 1.7 6.1 0.15 0.50 0.50 90 1012.8
20260505075304 52 15 1.7 5.2 0.16 0.50 0.50 91 1012.8
20260505075203 52 8 1.7 5.2 0.16 0.50 0.50 91 1012.8
20260505075105 52 6 1.7 5.2 0.16 0.50 0.50 91 1012.9
20260505075004 52 9 1.7 5.2 0.17 0.50 0.50 91 1012.9
20260505074813 52 7 1.7 5.2 0.17 0.50 0.50 91 1012.9
20260505074705 52 5 1.7 5.2 0.17 0.50 0.50 91 1012.8
20260505074604 53 1 0.9 3.5 0.17 0.50 0.50 91 1012.8
20260505074403 52 355 1.7 5.2 0.19 0.50 0.50 91 1012.8
20260505074303 52 354 1.7 5.2 0.19 0.50 0.50 91 1012.9
20260505074204 52 355 1.7 5.2 0.18 0.49 0.49 91 1012.9
20260505074004 52 351 2.6 5.2 0.19 0.49 0.49 91 1012.8
20260505073903 52 348 2.6 5.2 0.19 0.49 0.49 91 1012.8
20260505073805 52 348 3.5 5.2 0.18 0.48 0.48 91 1012.9
20260505073705 52 347 3.5 6.1 0.19 0.48 0.48 91 1012.8
20260505073514 52 348 3.5 6.1 0.20 0.48 0.48 91 1012.8
20260505073404 52 349 3.5 6.1 0.19 0.47 0.47 91 1012.8
20260505073303 52 350 3.5 6.1 0.20 0.47 0.47 91 1012.9
20260505073104 52 351 3.5 6.1 0.20 0.47 0.47 91 1012.8
20260505073005 52 350 3.5 6.1 0.19 0.46 0.46 91 1012.9
20260505072804 53 354 3.5 6.1 0.18 0.46 0.46 91 1012.8
20260505072704 53 354 3.5 6.1 0.19 0.46 0.46 91 1012.9
20260505072604 53 356 3.5 6.1 0.18 0.45 0.45 91 1012.7
20260505072507 52 357 3.5 6.1 0.18 0.45 0.45 91 1012.8
20260505072404 53 356 3.5 6.1 0.19 0.45 0.45 91 1012.8
20260505072305 53 353 3.5 6.1 0.18 0.44 0.44 91 1012.8
20260505072103 53 352 3.5 6.1 0.18 0.43 0.43 91 1012.8
20260505072004 53 353 3.5 6.1 0.17 0.43 0.43 90 1012.8
20260505071904 53 353 3.5 6.1 0.18 0.43 0.43 91 1012.8
20260505071704 53 350 3.5 6.1 0.18 0.42 0.42 90 1012.9
20260505071604 53 349 3.5 6.1 0.18 0.41 0.41 91 1012.8
20260505071506 53 348 3.5 6.1 0.18 0.41 0.41 91 1012.8
20260505071403 53 351 3.5 6.1 0.18 0.40 0.40 91 1012.7
20260505071304 53 355 3.5 6.1 0.18 0.40 0.40 90 1012.8
20260505071104 53 357 2.6 6.1 0.18 0.39 0.39 90 1012.7
20260505071003 53 1 2.6 6.1 0.18 0.39 0.39 90 1012.6
20260505070903 53 2 1.7 6.1 0.18 0.39 0.39 91 1012.6
20260505070804 53 12 1.7 6.1 0.17 0.39 0.39 91 1012.6
20260505070703 53 25 1.7 6.1 0.18 0.39 0.39 90 1012.6
20260505070603 53 34 1.7 6.1 0.18 0.38 0.38 91 1012.6
20260505070504 53 55 0.9 4.3 0.18 0.38 0.38 90 1012.6
20260505070404 53 58 0.9 4.3 0.17 0.37 0.37 90 1012.6
20260505070304 53 61 0.9 4.3 0.17 0.37 0.37 90 1012.5
20260505070104 52 44 0.9 4.3 0.17 0.36 0.36 90 1012.6
20260505070004 52 37 1.7 4.3 0.17 0.35 0.35 90 1012.6
20260505065903 52 38 1.7 4.3 0.17 0.35 0.35 90 1012.5
20260505065803 52 34 1.7 4.3 0.17 0.35 0.35 90 1012.6
20260505065704 52 34 1.7 4.3 0.17 0.35 0.35 90 1012.6
20260505065603 52 34 1.7 4.3 0.17 0.35 0.35 90 1012.4
20260505065504 52 31 0.9 4.3 0.17 0.35 0.35 90 1012.5
20260505065403 52 33 0.9 4.3 0.17 0.34 0.34 90 1012.5
20260505065304 52 32 0.9 4.3 0.17 0.34 0.34 90 1012.4
20260505065212 52 40 0.9 4.3 0.17 0.34 0.34 90 1012.4
20260505065104 52 57 0.9 4.3 0.17 0.33 0.33 90 1012.5
20260505065004 53 64 0.9 4.3 0.17 0.33 0.33 90 1012.5
20260505064803 53 67 0.9 2.6 0.17 0.32 0.32 90 1012.4
20260505064604 53 271 0.9 1.7 0.16 0.31 0.31 90 1012.4
20260505064504 53 304 0.9 1.7 0.17 0.31 0.31 90 1012.5
20260505064404 53 314 0.9 2.6 0.16 0.31 0.31 90 1012.3
20260505064303 53 318 0.9 3.5 0.17 0.31 0.31 90 1012.3
20260505064213 53 328 0.9 4.3 0.17 0.31 0.31 90 1012.3
20260505064004 53 337 2.6 7.8 0.16 0.30 0.30 90 1012.3
20260505063904 53 337 2.6 7.8 0.17 0.30 0.30 90 1012.3
20260505063803 53 338 2.6 7.8 0.16 0.29 0.29 90 1012.4
20260505063703 53 343 3.5 7.8 0.16 0.29 0.29 90 1012.4
20260505063603 53 344 3.5 7.8 0.15 0.28 0.28 90 1012.4
20260505063504 53 344 3.5 7.8 0.16 0.28 0.28 90 1012.4
20260505063403 53 345 3.5 7.8 0.16 0.28 0.28 90 1012.4
20260505063212 53 345 3.5 7.8 0.15 0.28 0.28 89 1012.4
20260505063104 53 345 2.6 7.8 0.16 0.28 0.28 89 1012.4
20260505063004 53 346 2.6 6.1 0.16 0.28 0.28 89 1012.4
20260505062803 53 351 1.7 5.2 0.16 0.27 0.27 89 1012.5
20260505062604 53 354 1.7 5.2 0.16 0.27 0.27 90 1012.4
20260505062304 53 357 1.7 3.5 0.15 0.25 0.25 89 1012.4
20260505062213 53 355 1.7 3.5 0.15 0.25 0.25 89 1012.5
20260505062104 53 356 1.7 3.5 0.15 0.25 0.25 89 1012.5
20260505061903 53 354 1.7 3.5 0.13 0.24 0.24 89 1012.4
20260505061803 53 354 1.7 3.5 0.13 0.24 0.24 89 1012.5
20260505061704 53 354 1.7 3.5 0.13 0.23 0.23 89 1012.4
20260505061604 53 354 1.7 3.5 0.13 0.23 0.23 89 1012.4
20260505061503 53 352 1.7 3.5 0.13 0.22 0.22 89 1012.4
20260505061404 53 353 1.7 3.5 0.13 0.22 0.22 89 1012.5
20260505061304 53 354 1.7 3.5 0.13 0.22 0.22 89 1012.5
20260505061205 53 352 1.7 3.5 0.12 0.21 0.21 89 1012.4
20260505061104 53 351 1.7 3.5 0.13 0.21 0.21 89 1012.4
20260505061004 53 351 1.7 3.5 0.13 0.21 0.21 89 1012.4
20260505060914 53 349 1.7 4.3 0.13 0.21 0.21 89 1012.4
20260505060803 53 350 1.7 4.3 0.12 0.20 0.20 89 1012.4
20260505060704 53 350 1.7 4.3 0.13 0.20 0.20 89 1012.4
20260505060603 53 350 1.7 4.3 0.12 0.20 0.20 89 1012.4
20260505060503 53 348 1.7 4.3 0.12 0.20 0.20 89 1012.4
20260505060404 53 346 1.7 4.3 0.12 0.20 0.20 89 1012.4
20260505060303 53 346 1.7 4.3 0.11 0.19 0.19 89 1012.3
20260505060204 53 345 1.7 4.3 0.12 0.19 0.19 89 1012.2
20260505060004 53 341 1.7 4.3 0.11 0.18 0.18 88 1012.3
20260505055912 53 339 1.7 4.3 0.11 0.18 0.18 88 1012.3
20260505055803 53 329 0.9 3.5 0.11 0.18 0.18 88 1012.2
20260505055704 53 304 0.9 3.5 0.10 0.17 0.17 88 1012.3
20260505055504 53 209 0.9 2.6 0.11 0.17 0.17 88 1012.2
20260505055304 53 167 0.9 2.6 0.11 0.17 0.17 88 1012.1
20260505055104 53 134 0.9 2.6 0.11 0.17 0.17 88 1012.1
20260505055003 53 83 0.9 2.6 0.10 0.16 0.16 88 1012.1
20260505054804 53 127 0.9 4.3 0.10 0.16 0.16 88 1012.2
20260505054603 53 134 1.7 4.3 0.10 0.15 0.15 88 1012.0
20260505054504 53 142 1.7 4.3 0.10 0.15 0.15 88 1012.1
20260505054403 53 145 1.7 4.3 0.10 0.15 0.15 88 1012.2
20260505054304 53 146 1.7 4.3 0.09 0.14 0.15 88 1012.1
20260505054203 53 146 0.9 4.3 0.09 0.14 0.14 88 1012.1
20260505054104 53 148 0.9 4.3 0.10 0.14 0.14 88 1012.1
20260505054004 53 151 0.9 4.3 0.10 0.14 0.14 88 1012.1
20260505053803 53 145 0.9 3.5 0.09 0.13 0.13 88 1012.1
20260505053603 53 346 0.9 2.6 0.09 0.13 0.13 87 1012.1
20260505053504 53 350 0.9 5.2 0.09 0.13 0.13 88 1012.1
20260505053403 53 353 1.7 6.1 0.09 0.13 0.13 88 1011.9
20260505053304 53 353 1.7 7.0 0.09 0.13 0.13 87 1012.0
20260505053204 53 355 1.7 7.0 0.09 0.12 0.12 87 1012.0
20260505053104 53 356 2.6 7.0 0.09 0.12 0.12 87 1012.0
20260505052910 53 358 2.6 7.0 0.08 0.11 0.11 87 1012.0
20260505052804 53 1 2.6 7.0 0.08 0.11 0.11 87 1012.0
20260505052704 53 3 2.6 7.0 0.08 0.11 0.11 87 1012.1
20260505052603 53 4 2.6 7.0 0.08 0.11 0.11 87 1012.0
20260505052403 53 6 1.7 7.0 0.08 0.11 0.11 87 1012.1
20260505052204 53 6 1.7 5.2 0.07 0.10 0.10 87 1012.1
20260505052103 53 4 1.7 5.2 0.07 0.10 0.10 87 1012.0
20260505052004 53 4 1.7 5.2 0.07 0.10 0.10 87 1012.1
20260505051912 53 2 1.7 5.2 0.07 0.10 0.10 86 1012.0
20260505051805 53 358 1.7 5.2 0.08 0.10 0.10 86 1012.0
20260505051704 53 356 2.6 5.2 0.07 0.09 0.09 86 1012.1
20260505051604 53 355 2.6 6.1 0.07 0.09 0.09 86 1012.1
20260505051503 53 356 2.6 6.1 0.07 0.09 0.09 86 1012.1
20260505051404 53 355 3.5 6.1 0.07 0.09 0.09 86 1012.0
20260505051304 53 355 3.5 6.1 0.07 0.09 0.09 86 1012.1
20260505051004 53 354 3.5 6.1 0.06 0.09 0.09 86 1012.1
20260505050912 53 354 3.5 6.1 0.06 0.09 0.09 86 1012.0
20260505050803 53 355 2.6 6.1 0.06 0.08 0.08 85 1012.1
20260505050604 53 355 2.6 5.2 0.06 0.08 0.08 85 1012.0
20260505050504 53 354 1.7 5.2 0.06 0.08 0.08 85 1012.0
20260505050404 54 353 1.7 4.3 0.06 0.08 0.08 85 1012.0
20260505050103 54 357 0.9 3.5 0.05 0.07 0.07 85 1011.9
20260505041703 54 351 2.6 4.3 0.02 0.02 0.02 81 1011.7
20260505041404 54 353 2.6 4.3 0.02 0.02 0.02 80 1011.6
20260505041304 54 354 2.6 4.3 0.02 0.02 0.02 81 1011.7
20260505041211 54 354 2.6 4.3 0.02 0.02 0.02 80 1011.6
20260505041004 54 354 2.6 4.3 0.02 0.02 0.02 80 1011.5
20260505040903 55 353 2.6 4.3 0.02 0.02 0.02 80 1011.5
20260505040704 55 358 3.5 5.2 0.02 0.02 0.02 80 1011.5
20260505040504 55 357 3.5 5.2 0.02 0.02 0.02 80 1011.4
20260505040403 55 357 3.5 5.2 0.02 0.02 0.02 80 1011.5
20260505040304 55 358 3.5 5.2 0.02 0.02 0.02 80 1011.6
20260505040212 55 357 3.5 6.1 0.02 0.02 0.02 80 1011.5
20260505040104 55 359 3.5 6.1 0.02 0.02 0.02 79 1011.5
20260505040005 55 358 3.5 6.1 0.02 0.02 0.02 79 1011.5
20260505035903 55 357 2.6 6.1 0.02 0.02 0.02 79 1011.5
20260505035604 55 354 2.6 6.1 0.02 0.02 0.02 78 1011.4
20260505035504 55 352 2.6 6.1 0.02 0.02 0.02 78 1011.4
20260505035404 55 349 2.6 6.1 0.02 0.02 0.02 78 1011.3
20260505035304 55 348 2.6 7.0 0.02 0.02 0.02 78 1011.4
20260505035104 56 348 2.6 7.0 0.02 0.02 0.02 78 1011.4
20260505035004 55 349 2.6 7.0 0.02 0.02 0.02 78 1011.3
20260505034903 55 350 2.6 7.0 0.02 0.02 0.02 77 1011.3
20260505034803 55 352 2.6 7.0 0.02 0.02 0.02 77 1011.3
20260505034604 55 354 2.6 7.0 0.02 0.02 0.02 77 1011.2
20260505034503 56 354 2.6 7.0 0.02 0.02 0.02 76 1011.3
20260505034404 56 356 2.6 7.0 0.02 0.02 0.02 75 1011.2
20260505034303 56 357 2.6 4.3 0.02 0.02 0.02 75 1011.2
20260505034211 56 356 2.6 4.3 0.02 0.02 0.02 75 1011.2
20260505034104 56 355 2.6 7.0 0.02 0.02 0.02 75 1011.2
20260505033904 56 353 2.6 7.0 0.01 0.01 0.01 75 1011.2
20260505033803 56 353 2.6 7.0 0.01 0.01 0.01 76 1011.2
20260505033603 56 352 3.5 7.0 0.01 0.01 0.01 76 1011.2
20260505033512 56 353 3.5 7.0 0.01 0.01 0.01 75 1011.2
20260505033404 56 353 3.5 7.0 0.01 0.01 0.01 75 1011.1
20260505033304 56 353 3.5 7.0 0.01 0.01 0.01 74 1011.1
20260505033204 56 356 3.5 7.0 0.01 0.01 0.01 74 1011.2
20260505033104 56 358 3.5 5.2 0.01 0.01 0.01 74 1011.2
20260505033010 56 2 2.6 5.2 0.01 0.01 0.01 74 1011.1
20260505032904 56 3 2.6 5.2 0.01 0.01 0.01 74 1011.1
20260505032803 56 3 1.7 5.2 0.01 0.01 0.01 74 1011.1
20260505032703 56 3 1.7 5.2 0.01 0.01 0.01 74 1011.1
20260505032604 56 358 1.7 5.2 0.01 0.01 0.01 74 1011.2
20260505032504 56 351 1.7 5.2 0.01 0.01 0.01 74 1011.1
20260505032304 56 168 1.7 4.3 0.01 0.01 0.01 75 1011.1
20260505032203 56 182 1.7 4.3 0.01 0.01 0.01 76 1011.2
20260505032104 57 190 1.7 4.3 0.01 0.01 0.01 77 1011.2
20260505032013 57 196 1.7 4.3 0.01 0.01 0.01 77 1011.1
20260505031704 57 204 1.7 4.3 0.00 0.00 0.00 77 1011.1
20260505031604 57 209 1.7 4.3 0.00 0.00 0.00 76 1011.2
20260505031503 57 219 1.7 4.3 0.00 0.00 0.00 75 1011.1
20260505031404 57 228 1.7 4.3 0.00 0.00 0.00 76 1011.1
20260505031310 57 237 1.7 3.5 0.00 0.00 0.00 76 1011.2
20260505031203 57 237 1.7 4.3 0.00 0.00 0.00 76 1011.2
20260505031004 57 232 2.6 4.3 0.00 0.00 0.00 77 1011.2
20260505030904 57 230 2.6 4.3 0.00 0.00 0.00 77 1011.3
20260505030810 57 229 2.6 4.3 0.00 0.00 0.00 77 1011.2
20260505030704 57 231 2.6 4.3 0.00 0.00 0.00 77 1011.2
20260505030604 57 230 2.6 4.3 0.00 0.00 0.00 76 1011.3
20260505030504 57 232 2.6 4.3 0.00 0.00 0.00 76 1011.3
20260505030203 58 250 2.6 4.3 0.00 0.00 0.00 75 1011.2
20260505030103 58 260 1.7 4.3 0.00 0.00 0.00 75 1011.2
20260505030004 58 273 1.7 4.3 0.00 0.00 0.00 75 1011.2
20260505025903 58 289 1.7 3.5 0.00 0.00 0.00 75 1011.1
20260505025804 58 294 1.7 3.5 0.00 0.00 0.00 75 1011.1
20260505025703 58 295 1.7 3.5 0.00 0.00 0.00 75 1011.1
20260505025403 58 309 1.7 3.5 0.00 0.00 0.00 75 1011.1
20260505025305 58 312 1.7 3.5 0.00 0.00 0.00 74 1011.1
20260505025204 58 314 1.7 3.5 0.00 0.00 0.00 74 1011.1
20260505025104 58 321 1.7 3.5 0.00 0.00 0.00 74 1011.1
20260505025004 58 326 1.7 2.6 0.00 0.00 0.00 73 1011.2
20260505024909 58 326 1.7 2.6 0.00 0.00 0.00 73 1011.3
20260505024803 58 331 0.9 2.6 0.00 0.00 0.00 72 1011.2
20260505024503 59 338 0.9 3.5 0.00 0.00 0.00 70 1011.1
20260505024403 59 335 0.9 3.5 0.00 0.00 0.00 70 1011.2
20260505024303 59 336 0.9 3.5 0.00 0.00 0.00 70 1011.2
20260505024203 59 336 0.9 3.5 0.00 0.00 0.00 70 1011.2
20260505024103 59 338 0.9 3.5 0.00 0.00 0.00 70 1011.2
20260505024003 58 347 1.7 4.3 0.00 0.00 0.00 70 1011.2
20260505023913 58 347 1.7 4.3 0.00 0.00 0.00 70 1011.2
20260505023703 58 345 0.9 4.3 0.00 0.00 0.00 69 1011.2
20260505023603 58 353 0.9 4.3 0.00 0.00 0.00 70 1011.1
20260505023504 58 7 0.9 4.3 0.00 0.00 0.00 70 1011.3
20260505023404 58 45 0.9 4.3 0.00 0.00 0.00 70 1011.2
20260505023304 58 86 0.9 4.3 0.00 0.00 0.00 70 1011.2
20260505023211 58 115 0.9 4.3 0.00 0.00 0.00 69 1011.3
20260505023103 58 128 0.9 4.3 0.00 0.00 0.00 70 1011.1
20260505023004 59 157 0.0 1.7 0.00 0.00 0.00 70 1011.3
20260505022903 59 159 0.0 1.7 0.00 0.00 0.00 70 1011.3
20260505022803 59 160 0.0 1.7 0.00 0.00 0.00 70 1011.2
20260505022704 59 160 0.9 2.6 0.00 0.00 0.00 69 1011.2
20260505022603 59 159 0.9 2.6 0.00 0.00 0.00 68 1011.2
20260505022404 59 153 0.9 2.6 0.00 0.00 0.00 69 1011.2
20260505022304 59 152 0.9 2.6 0.00 0.00 0.00 68 1011.2
20260505022204 59 150 0.9 2.6 0.00 0.00 0.00 68 1011.2
20260505022104 59 150 0.9 2.6 0.00 0.00 0.00 67 1011.2
20260505021903 59 149 0.9 2.6 0.00 0.00 0.00 67 1011.2
20260505021808 59 147 0.0 2.6 0.00 0.00 0.00 67 1011.2
20260505021704 59 136 0.0 2.6 0.00 0.00 0.00 67 1011.3
20260505021604 59 70 0.0 0.9 0.00 0.00 0.00 67 1011.3
20260505021504 59 9 0.0 0.9 0.00 0.00 0.00 67 1011.3
20260505021411 59 3 0.0 0.9 0.00 0.00 0.00 67 1011.2
20260505021304 59 2 0.0 0.9 0.00 0.00 0.00 67 1011.2
20260505021203 59 2 0.0 0.9 0.00 0.00 0.00 67 1011.2
20260505021108 59 3 0.0 0.9 0.00 0.00 0.00 66 1011.2
20260505020803 59 352 0.9 2.6 0.00 0.00 0.00 65 1011.2
20260505020704 59 349 0.9 2.6 0.00 0.00 0.00 65 1011.2
20260505020603 59 354 0.9 2.6 0.00 0.00 0.00 65 1011.3
20260505020504 59 346 0.9 3.5 0.00 0.00 0.00 65 1011.3
20260505020203 59 325 1.7 3.5 0.00 0.00 0.00 65 1011.4
20260505020103 59 320 1.7 3.5 0.00 0.00 0.00 65 1011.3
20260505020004 59 308 1.7 3.5 0.00 0.00 0.00 65 1011.4
20260505015904 59 300 1.7 3.5 0.00 0.00 0.00 64 1011.4
20260505015804 59 296 0.9 3.5 0.00 0.00 0.00 64 1011.5
20260505015707 59 286 0.9 3.5 0.00 0.00 0.00 65 1011.5
20260505015503 59 264 0.9 2.6 0.00 0.00 0.00 66 1011.6
20260505015304 59 270 0.9 1.7 0.00 0.00 0.00 67 1011.6
20260505015204 59 271 0.9 1.7 0.00 0.00 0.00 68 1011.6
20260505015103 59 277 0.9 1.7 0.00 0.00 0.00 68 1011.5
20260505015007 59 280 0.9 1.7 0.00 0.00 0.00 68 1011.5
20260505014903 59 286 0.9 1.7 0.00 0.00 0.00 68 1011.5
20260505014804 59 298 0.9 1.7 0.00 0.00 0.00 68 1011.6
20260505014704 59 308 0.9 1.7 0.00 0.00 0.00 68 1011.6
20260505014603 59 316 0.9 1.7 0.00 0.00 0.00 67 1011.7
20260505014504 59 327 0.9 1.7 0.00 0.00 0.00 68 1011.6
20260505014403 59 337 0.9 1.7 0.00 0.00 0.00 68 1011.6
20260505014204 59 349 0.9 2.6 0.00 0.00 0.00 67 1011.6
20260505014103 59 350 0.9 2.6 0.00 0.00 0.00 67 1011.6
20260505014003 59 349 0.9 2.6 0.00 0.00 0.00 67 1011.6
20260505013803 59 344 0.9 2.6 0.00 0.00 0.00 66 1011.7
20260505013704 59 343 0.9 2.6 0.00 0.00 0.00 66 1011.7
20260505013606 59 340 0.9 2.6 0.00 0.00 0.00 66 1011.8
20260505013504 59 338 0.9 2.6 0.00 0.00 0.00 65 1011.6
20260505013404 60 335 0.9 2.6 0.00 0.00 0.00 66 1011.6
20260505013304 60 331 0.9 2.6 0.00 0.00 0.00 66 1011.6
20260505013203 60 325 0.9 2.6 0.00 0.00 0.00 66 1011.6
20260505013105 60 321 0.9 2.6 0.00 0.00 0.00 65 1011.6
20260505013003 60 317 0.9 2.6 0.00 0.00 0.00 65 1011.7
20260505012907 60 310 0.0 1.7 0.00 0.00 0.00 64 1011.7
20260505012703 60 309 0.0 0.9 0.00 0.00 0.00 64 1011.7
20260505012603 60 309 0.0 0.9 0.00 0.00 0.00 64 1011.7
20260505012504 60 309 0.0 0.9 0.00 0.00 0.00 64 1011.7
20260505012403 60 309 0.0 0.9 0.00 0.00 0.00 65 1011.8
20260505012304 60 309 0.0 0.9 0.00 0.00 0.00 65 1011.7
20260505012104 60 309 0.0 0.9 0.00 0.00 0.00 65 1011.8
20260505012004 60 309 0.0 0.9 0.00 0.00 0.00 65 1011.8
20260505011903 60 309 0.0 1.7 0.00 0.00 0.00 65 1011.9
20260505011603 60 309 0.9 1.7 0.00 0.00 0.00 65 1011.9
20260505011507 60 309 0.9 1.7 0.00 0.00 0.00 65 1011.8
20260505011404 60 309 0.9 1.7 0.00 0.00 0.00 66 1011.8
20260505011304 60 309 0.9 1.7 0.00 0.00 0.00 66 1011.8
20260505011203 60 309 0.9 1.7 0.00 0.00 0.00 66 1011.9
20260505011103 60 309 0.9 1.7 0.00 0.00 0.00 66 1012.0
20260505011004 60 309 0.9 1.7 0.00 0.00 0.00 66 1011.9
20260505010604 60 304 0.9 2.6 0.00 0.00 0.00 66 1012.0
20260505010504 60 302 0.9 2.6 0.00 0.00 0.00 67 1012.0
20260505010403 60 300 0.9 2.6 0.00 0.00 0.00 67 1012.1
20260505010004 60 284 0.9 2.6 0.00 0.00 0.00 67 1012.1
20260505005904 60 277 0.9 2.6 0.00 0.00 0.00 67 1012.2
20260505005804 60 270 0.9 1.7 0.00 0.00 0.00 67 1012.2
20260505005604 60 255 0.0 1.7 0.00 0.00 0.00 67 1012.2
20260505005504 60 248 0.9 1.7 0.00 0.00 0.00 67 1012.2
20260505005406 60 242 0.9 1.7 0.00 0.00 0.00 67 1012.2
20260505005304 60 234 0.9 2.6 0.00 0.00 0.00 67 1012.3
20260505005204 60 236 0.9 2.6 0.00 0.00 0.00 67 1012.4
20260505005104 60 236 0.9 2.6 0.00 0.00 0.00 67 1012.3
20260505005004 59 236 0.9 2.6 0.00 0.00 0.00 67 1012.4
20260505004803 59 235 0.9 2.6 0.00 0.00 0.00 67 1012.4
20260505004706 59 235 0.9 2.6 0.00 0.00 0.00 67 1012.5
20260505004604 59 235 0.9 2.6 0.00 0.00 0.00 67 1012.4
20260505004503 60 234 0.9 2.6 0.00 0.00 0.00 67 1012.5
20260505004403 60 235 0.9 2.6 0.00 0.00 0.00 67 1012.5
20260505004204 60 235 0.9 2.6 0.00 0.00 0.00 67 1012.5
20260505004103 60 235 0.9 2.6 0.00 0.00 0.00 67 1012.5
20260505004006 60 235 0.9 2.6 0.00 0.00 0.00 67 1012.6
20260505003903 60 235 0.9 1.7 0.00 0.00 0.00 67 1012.5
20260505003704 60 235 0.9 1.7 0.00 0.00 0.00 67 1012.6
20260505003603 60 235 0.9 1.7 0.00 0.00 0.00 67 1012.6
20260505003504 60 235 0.9 2.6 0.00 0.00 0.00 67 1012.6
20260505003403 60 235 0.9 2.6 0.00 0.00 0.00 67 1012.7
20260505003204 60 235 0.9 2.6 0.00 0.00 0.00 67 1012.6